Location: *
(40.9167°N, 9.5000°E)
Time: 08:57:54
(UTC+00:00)

STARLINK-1217 - Pass Details

Date: 09 April 2020
Orbit: 378 x 381 km, 53.0° (Epoch: 04 June)

Event Time Altitude Azimuth Distance (km) Brightness Sun altitude
Rises 19:43:15 0° 311° (NW) 2,261 8.3 -19.8°
Reaches altitude 10° 19:45:20 10° 316° (NW) 1,404 6.8 -20.1°
Enters shadow 19:48:01 50° 1° (N) 495 3.5 -20.5°
